Powrót do katalogu

SL-16 DEB

AktywnyLEO
NORAD 43375·DEBRIS·🇷🇺 Russia

Wystrzelony Jun 29, 2007 z Baikonur Cosmodrome

Loading…

Następne Przeloty (najbliższe 24 godziny)

TLE

Starzejące sięSource: Space-Track

Epoka: Sep 10, 2026, 05:11 UTC

1 43375U 07029S   26253.21661201  .00002260  00000-0  10663-2 0  9995
2 43375  70.8837  86.9140 0100014 200.3701 282.7962 14.18291345656162

Śledź SL-16 DEB w czasie rzeczywistym z AllMySat

Download on the App Store